Showing default

OPS 9381 (GGTS), 2207

Orbit data source: Space-Track

OPS 9381 (GGTS), 2207 is a payload satellite owned by USAF SSD (US) in GEO that was launched on Thu, 16 Jun 1966 UTC via a TITAN IIIC launch vehicle from the Air Force Eastern Test Range (AFETR). Payload-class satellites include a variety of spacecraft equipped with specific instruments for various scientific and technological missions. These include communications satellites like Starlink; space stations such as the ISS; scientific satellites like the Hubble; Earth observation satellites from companies like Planet Labs, Umbra, and HawkEye 360; GPS; miniature CubeSats for education and research; and military/defense satellites.

Loading next visibility...
Identifier
2207, 1966-053A
Orbit
GEO
Last TLE update
18 hours ago
Origin
Manufacturer
GE/MSVD
Mission
Non-operational Defense Technology
Bus & Motor
GGTS, Unknown motor
Mass
47 kg wet, 47 kg dry
Launch date (UTC)
1966-06-16 (59 years ago)
Launch vehicle
TITAN IIIC
Launch site
Air Force Eastern Test Range (AFETR)
Object type
Payload
Rocket body
Debris
Shape & HBR
Poly + 2 Rod, 32 m
Radar Cross Section
0.926 m², Medium (>0.1 m² and < 1m²)

Expand to show TLE details & history

TLE from 18 hours ago
0 OPS 9381 (GGTS)
1 02207U 66053A   25188.54916605 -.00000099  00000-0  00000-0 0  9990
2 02207   8.0133  46.6030 0026250 225.6249 138.1858  1.08009605232248
Epoch: 2025-07-07T13:10Z
TLE epoch observation values (Epoch: 2025-07-07T13:10:47.946Z)
Latitude
0.56445°
Longitude
-72.88089°
Altitude
33,826.272 km
Speed
3.146 km/s
True Right ascension
03h 22m 18s
True Declination
0° 33' 50"
Sunlit
Object was in daylight at epoch
Visualization orbit readout
Latitude
-7.14121°
Longitude
-139.35361°
Altitude
33,715.034 km
Speed
3.154 km/s
Apparent Right ascension
23h 20m 49s
Apparent Declination
-13° 42' 49"
Sunlit
Object is in daylight
Visualization observer readout
Local Sidereal Time
19:22:01
Azimuth
120.614° SE
Elevation
12.933°
Doppler factor
1
Orbital elements
Apogee altitude
33,854.384 km
Perigee altitude
33,643.717 km
Semi-major axis
40,127.188 km
Eccentricity
0.00263
Inclination
8.0133°
RAAN
46.603°
Arg. of periapsis
225.6249°
True anomaly
Unknown
Mean anomaly
138.1858°
Eccentric anomaly
Unknown
Mean motion
0.27001 °/min
Orbital period
1,333.27 mins
BSTAR
0
Loading historical data...
2207 neighbors
Loading maneuver chart data...
Loading SW <> Apogee altitude chart data...
Loading historical data...
Loading historical data...
Loading historical data...
Loading historical data...
Loading historical data...
Loading historical data...
Loading historical data...

OPS 9381 (GGTS) Visibility forecast

Observer location: undefined°, undefined°

Span
Click to sort rows by Start time (UTC) header in descending order
Start Az.
Max El. time (UTC)
Max El. Az.
Max El.
End time (UTC)
End Az.
788 mins2025-07-08 07:16:29.659Z120.628° SE2025-07-08 14:39:29.659Z103.921° ESE16.674°2025-07-08 20:24:29.659Z101.123° ESE
|